| time (UTC) | temp F | wind direction | speed knots | gust knots | rain 1hr in | rain 24hr in | rain mn in | humidity % | barometer mb |
| 20260506111530 | 25 | 0 | 0.0 | 0.0 | 0.00 | 0.03 | 0.00 | 91 | 1017.0 |
| 20260506110030 | 25 | 0 | 0.0 | 0.0 | 0.00 | 0.03 | 0.00 | 91 | 1016.8 |
| 20260506104533 | 25 | 0 | 0.0 | 0.0 | 0.00 | 0.03 | 0.00 | 91 | 1016.7 |
| 20260506103032 | 25 | 0 | 0.0 | 0.0 | 0.00 | 0.03 | 0.00 | 91 | 1016.7 |
| 20260506101536 | 26 | 0 | 0.0 | 0.0 | 0.00 | 0.03 | 0.00 | 91 | 1016.7 |
| 20260506100033 | 26 | 0 | 0.0 | 0.0 | 0.00 | 0.03 | 0.00 | 91 | 1016.7 |
| 20260506094528 | 26 | 0 | 0.0 | 0.0 | 0.00 | 0.07 | 0.00 | 91 | 1016.8 |
| 20260506093052 | 26 | 0 | 0.0 | 0.0 | 0.00 | 0.07 | 0.00 | 91 | 1017.0 |
| 20260506091533 | 26 | 0 | 0.0 | 0.0 | 0.00 | 0.07 | 0.00 | 91 | 1017.0 |
| 20260506090036 | 26 | 0 | 0.0 | 0.0 | 0.00 | 0.07 | 0.00 | 91 | 1017.0 |
| 20260506084530 | 26 | 0 | 0.0 | 0.0 | 0.00 | 0.08 | 0.00 | 91 | 1017.1 |
| 20260506083034 | 26 | 0 | 0.0 | 0.0 | 0.00 | 0.08 | 0.00 | 91 | 1017.1 |
| 20260506081528 | 26 | 0 | 0.0 | 0.0 | 0.00 | 0.08 | 0.00 | 91 | 1017.1 |
| 20260506073032 | 26 | 0 | 0.0 | 0.0 | 0.00 | 0.09 | 0.00 | 91 | 1017.5 |
| 20260506071534 | 27 | 0 | 0.0 | 0.0 | 0.00 | 0.09 | 0.00 | 91 | 1017.5 |
| 20260506061530 | 27 | 0 | 0.0 | 0.0 | 0.00 | 0.09 | 0.00 | 92 | 1017.0 |
| 20260506044533 | 27 | 0 | 0.0 | 0.0 | 0.00 | 0.09 | 0.09 | 92 | 1016.5 |
| 20260506043030 | 27 | 0 | 0.0 | 0.0 | 0.00 | 0.09 | 0.09 | 92 | 1016.5 |
| 20260506041530 | 27 | 0 | 0.0 | 0.0 | 0.00 | 0.09 | 0.09 | 92 | 1016.4 |
| 20260506040030 | 27 | 0 | 0.0 | 0.0 | 0.00 | 0.09 | 0.09 | 91 | 1016.3 |
| 20260506034532 | 27 | 0 | 0.0 | 0.0 | 0.00 | 0.09 | 0.09 | 91 | 1016.1 |
| 20260506033033 | 27 | 0 | 0.0 | 0.0 | 0.00 | 0.09 | 0.09 | 91 | 1016.1 |
| 20260506031530 | 27 | 0 | 0.0 | 0.0 | 0.00 | 0.09 | 0.09 | 92 | 1015.9 |
| 20260506030030 | 27 | 0 | 0.0 | 0.0 | 0.00 | 0.09 | 0.09 | 91 | 1015.8 |
| 20260506024529 | 27 | 0 | 0.0 | 0.0 | 0.00 | 0.10 | 0.09 | 91 | 1015.5 |
| 20260506023032 | 27 | 0 | 0.0 | 0.0 | 0.00 | 0.10 | 0.09 | 91 | 1015.3 |
| 20260506021530 | 27 | 0 | 0.0 | 0.0 | 0.00 | 0.10 | 0.09 | 91 | 1014.9 |
| 20260506020100 | 27 | 0 | 0.0 | 0.0 | 0.00 | 0.10 | 0.09 | 91 | 1014.8 |
| 20260506014531 | 27 | 0 | 0.0 | 0.0 | 0.00 | 0.10 | 0.09 | 90 | 1014.6 |
| 20260506013032 | 27 | 0 | 0.0 | 0.0 | 0.00 | 0.10 | 0.09 | 90 | 1014.3 |
| 20260506011528 | 27 | 0 | 0.0 | 0.0 | 0.00 | 0.10 | 0.09 | 91 | 1014.1 |
| 20260506010031 | 27 | 0 | 0.0 | 0.0 | 0.00 | 0.10 | 0.09 | 90 | 1014.0 |
| 20260506004539 | 28 | 0 | 0.0 | 0.0 | 0.00 | 0.25 | 0.09 | 90 | 1014.0 |
| 20260506003032 | 28 | 0 | 0.0 | 0.0 | 0.00 | 0.25 | 0.09 | 90 | 1014.1 |
| 20260506001528 | 28 | 0 | 0.0 | 0.0 | 0.00 | 0.25 | 0.09 | 90 | 1013.9 |
| 20260506000043 | 28 | 0 | 0.0 | 0.0 | 0.00 | 0.25 | 0.09 | 90 | 1013.7 |
| 20260505234532 | 28 | 0 | 0.0 | 0.0 | 0.00 | 0.25 | 0.09 | 90 | 1013.8 |
| 20260505233032 | 28 | 0 | 0.0 | 0.0 | 0.00 | 0.25 | 0.09 | 91 | 1013.7 |
| 20260505231532 | 28 | 0 | 0.0 | 0.0 | 0.00 | 0.25 | 0.09 | 91 | 1013.7 |
| 20260505230041 | 28 | 0 | 0.0 | 0.0 | 0.00 | 0.25 | 0.09 | 91 | 1013.9 |
| 20260505224542 | 28 | 0 | 0.0 | 0.0 | 0.00 | 0.25 | 0.09 | 90 | 1013.9 |
| 20260505223037 | 28 | 0 | 0.0 | 0.0 | 0.00 | 0.25 | 0.09 | 91 | 1013.8 |
| 20260505221529 | 29 | 0 | 0.0 | 0.0 | 0.00 | 0.25 | 0.09 | 91 | 1013.4 |
| 20260505220029 | 29 | 0 | 0.0 | 0.0 | 0.01 | 0.25 | 0.09 | 90 | 1013.5 |
| 20260505214530 | 30 | 0 | 0.0 | 0.0 | 0.01 | 0.25 | 0.09 | 88 | 1013.4 |
| 20260505213030 | 32 | 0 | 0.0 | 0.0 | 0.01 | 0.25 | 0.09 | 88 | 1013.1 |
| 20260505211548 | 32 | 0 | 0.0 | 0.0 | 0.01 | 0.25 | 0.09 | 89 | 1013.1 |
| 20260505210029 | 31 | 0 | 0.0 | 0.0 | 0.00 | 0.24 | 0.08 | 89 | 1013.2 |
| 20260505204530 | 32 | 0 | 0.0 | 0.0 | 0.00 | 0.24 | 0.08 | 90 | 1013.5 |
| 20260505203030 | 31 | 0 | 0.0 | 0.0 | 0.00 | 0.24 | 0.08 | 91 | 1013.8 |
| 20260505201537 | 31 | 0 | 0.0 | 0.0 | 0.00 | 0.24 | 0.08 | 91 | 1013.9 |
| 20260505200033 | 31 | 0 | 0.0 | 0.0 | 0.00 | 0.24 | 0.08 | 90 | 1014.2 |
| 20260505194533 | 31 | 0 | 0.0 | 0.0 | 0.01 | 0.24 | 0.08 | 90 | 1014.3 |
| 20260505193031 | 31 | 0 | 0.0 | 0.0 | 0.01 | 0.24 | 0.08 | 90 | 1014.3 |
| 20260505191535 | 32 | 0 | 0.0 | 0.0 | 0.01 | 0.24 | 0.08 | 89 | 1014.6 |
| 20260505190031 | 32 | 0 | 0.0 | 0.0 | 0.01 | 0.24 | 0.08 | 88 | 1014.6 |
| 20260505184539 | 33 | 0 | 0.0 | 0.0 | 0.01 | 0.23 | 0.07 | 87 | 1014.4 |
| 20260505183030 | 33 | 0 | 0.0 | 0.0 | 0.01 | 0.23 | 0.07 | 87 | 1014.5 |
| 20260505181532 | 32 | 0 | 0.0 | 0.0 | 0.01 | 0.23 | 0.07 | 90 | 1014.5 |
| 20260505180029 | 32 | 0 | 0.0 | 0.0 | 0.01 | 0.23 | 0.07 | 89 | 1014.6 |
| 20260505174537 | 32 | 0 | 0.0 | 0.0 | 0.00 | 0.22 | 0.06 | 90 | 1015.0 |
| 20260505173030 | 32 | 0 | 0.0 | 0.0 | 0.00 | 0.22 | 0.06 | 90 | 1014.9 |
| 20260505171538 | 31 | 0 | 0.0 | 0.0 | 0.00 | 0.22 | 0.06 | 90 | 1015.0 |
| 20260505170032 | 32 | 0 | 0.0 | 0.0 | 0.00 | 0.22 | 0.06 | 90 | 1015.5 |
| 20260505164530 | 32 | 0 | 0.0 | 0.0 | 0.00 | 0.22 | 0.06 | 90 | 1015.7 |
| 20260505163032 | 32 | 0 | 0.0 | 0.0 | 0.00 | 0.22 | 0.06 | 90 | 1015.2 |
| 20260505161530 | 33 | 0 | 0.0 | 0.0 | 0.00 | 0.22 | 0.06 | 89 | 1015.3 |
| 20260505153040 | 32 | 0 | 0.0 | 0.0 | 0.00 | 0.22 | 0.06 | 92 | 1015.7 |
| 20260505151530 | 31 | 0 | 0.0 | 0.0 | 0.00 | 0.22 | 0.06 | 92 | 1015.6 |
| 20260505124536 | 31 | 0 | 0.0 | 0.0 | 0.00 | 0.22 | 0.06 | 93 | 1015.3 |
| 20260505123046 | 31 | 0 | 0.0 | 0.0 | 0.00 | 0.22 | 0.06 | 93 | 1015.0 |
| 20260505121532 | 31 | 0 | 0.0 | 0.0 | 0.00 | 0.22 | 0.06 | 93 | 1015.0 |
| 20260505120034 | 32 | 0 | 0.0 | 0.0 | 0.00 | 0.22 | 0.06 | 93 | 1014.8 |
| 20260505114532 | 32 | 0 | 0.0 | 0.0 | 0.00 | 0.22 | 0.06 | 93 | 1014.7 |
| 20260505113032 | 32 | 0 | 0.0 | 4.3 | 0.00 | 0.22 | 0.06 | 93 | 1014.8 |